Location: Piotrkow Trybunalski
(51.4000°N, 19.6830°E)
Time: 01:31:40
(UTC+01:00)

A-11 Canister half - Pass Details

Date: 15 December 2023
Orbit: 1512 x 1687 km, 47.2° (Epoch: 23 February)

Event Time Altitude Azimuth Distance (km) Brightness Sun altitude
Exits shadow 01:34:19 12° 116° (ESE) 3,762 11.1 -53.8°
Drops below altitude 10° 01:34:48 10° 116° (ESE) 3,911 11.2 -53.7°
Sets 01:38:01 0° 113° (ESE) 4,913 11.9 -53.4°
